This is the latest recevied weather packets stored in our database for station/object KC4KQE. If no packets are shown the sender has not sent any weather packets the latest 1 day(s).
| Time | Temp. | Humidity | Pressure | Rain* | Wind** | Luminosity | Snow |
|---|---|---|---|---|---|---|---|
| 1778027656 | 22.78° C | 26% | 1010.2 hPa | 0 mm | 2.24 m/s, 110° | 127 W/m² | - |
| 1778027356 | 22.78° C | 25% | 1010.3 hPa | 0 mm | 3.58 m/s, 110° | 135 W/m² | - |
| 1778027056 | 23.33° C | 26% | 1010.3 hPa | 0 mm | 4.47 m/s, 110° | 190 W/m² | - |
| 1778026757 | 23.33° C | 26% | 1010.1 hPa | 0 mm | 3.58 m/s, 110° | 148 W/m² | - |
| 1778026458 | 23.89° C | 25% | 1010.1 hPa | 0 mm | 6.26 m/s, 110° | 169 W/m² | - |
| 1778026156 | 23.89° C | 25% | 1010 hPa | 0 mm | 4.02 m/s, 110° | 540 W/m² | - |
| 1778025856 | 23.33° C | 25% | 1010.1 hPa | 0 mm | 3.58 m/s, 110° | 230 W/m² | - |
| 1778025556 | 23.89° C | 25% | 1010.1 hPa | 0 mm | 3.58 m/s, 110° | 199 W/m² | - |
| 1778025256 | 23.89° C | 25% | 1010.1 hPa | 0 mm | 4.92 m/s, 110° | 179 W/m² | - |
| 1778024956 | 24.44° C | 25% | 1010 hPa | 0 mm | 5.81 m/s, 110° | 578 W/m² | - |
| 1778024657 | 23.89° C | 26% | 1009.9 hPa | 0 mm | 5.36 m/s, 110° | 656 W/m² | - |
| 1778024356 | 23.89° C | 25% | 1009.9 hPa | 0 mm | 3.58 m/s, 110° | 654 W/m² | - |
| 1778024056 | 24.44° C | 25% | 1010 hPa | 0 mm | 4.92 m/s, 110° | 155 W/m² | - |
| 1778023756 | 24.44° C | 26% | 1009.9 hPa | 0 mm | 7.6 m/s, 110° | 670 W/m² | - |
| 1778023456 | 24.44° C | 25% | 1009.9 hPa | 0 mm | 4.47 m/s, 110° | 687 W/m² | - |
| 1778023156 | 23.89° C | 26% | 1009.9 hPa | 0 mm | 3.58 m/s, 110° | 390 W/m² | - |
| 1778022856 | 24.44° C | 25% | 1010 hPa | 0 mm | 4.02 m/s, 110° | 206 W/m² | - |
| 1778022556 | 24.44° C | 25% | 1009.9 hPa | 0 mm | 7.6 m/s, 110° | 601 W/m² | - |
| 1778022262 | 24.44° C | 25% | 1009.9 hPa | 0 mm | 4.02 m/s, 110° | 707 W/m² | - |
| 1778021956 | 25° C | 26% | 1009.9 hPa | 0 mm | 3.58 m/s, 110° | 721 W/m² | - |
| 1778021656 | 24.44° C | 26% | 1010 hPa | 0 mm | 6.26 m/s, 110° | 714 W/m² | - |
| 1778021356 | 24.44° C | 25% | 1010 hPa | 0 mm | 8.49 m/s, 110° | 715 W/m² | - |
| 1778021056 | 25° C | 26% | 1010 hPa | 0 mm | 3.13 m/s, 110° | 722 W/m² | - |
| 1778020756 | 25° C | 27% | 1010.1 hPa | 0 mm | 4.92 m/s, 110° | 722 W/m² | - |
| 1778020456 | 24.44° C | 27% | 1010.1 hPa | 0 mm | 4.02 m/s, 110° | 763 W/m² | - |
* Rain latest hour (hover to see other rain measurements)
** Current wind speed in m/s (hover to see current wind gust speed)